When you browse on this site, cookies collect data to enhance your experience and personalize the content and advertising you see.
Visit our Privacy Policy to learn more. By continuing to use the site, you agree to this use of cookies and data.
  • In United Kingdom
  • List of Countries
  • For 7 days
  • Water Temperature
  • Weather Map
  • Weather Widgets
  • user-avatar
    Login

    Hourly Weather San Pedro Sula

    Today, 24 August, Saturday

    Time Temperature Precipitation Wind Pressure Humidity
    00:00 +23°C° 0 mm 0 mps 745 mmHg 92%
    01:00 +25°C° 0 mm 1 mps 745 mmHg 93%
    02:00 +25°C° 0 mm 1 mps 744 mmHg 94%
    03:00 +25°C° 0 mm 1 mps 744 mmHg 94%
    04:00 +25°C° 0 mm 1 mps 744 mmHg 94%
    05:00 +25°C° 0 mm 1 mps 744 mmHg 94%
    06:00 +25°C° 0 mm 1 mps 744 mmHg 95%
    07:00 +27°C° 0 mm 1 mps 745 mmHg 85%
    08:00 +29°C° 0 mm 1 mps 745 mmHg 75%
    09:00 +32°C° 0 mm 1 mps 746 mmHg 66%
    10:00 +32°C° 0.1 mm 1 mps 745 mmHg 65%
    11:00 +33°C° 0.1 mm 1 mps 745 mmHg 64%
    12:00 +35°C° 0.1 mm 2 mps 745 mmHg 63%
    13:00 +34°C° 0.4 mm 2 mps 744 mmHg 65%
    14:00 +34°C° 0.4 mm 2 mps 744 mmHg 68%
    15:00 +34°C° 0.4 mm 2 mps 743 mmHg 70%
    16:00 +31°C° 0.4 mm 2 mps 743 mmHg 76%
    17:00 +30°C° 0.4 mm 2 mps 743 mmHg 82%
    18:00 +29°C° 0.4 mm 2 mps 743 mmHg 88%
    19:00 +28°C° 0.1 mm 1 mps 744 mmHg 91%
    20:00 +27°C° 0.1 mm 1 mps 745 mmHg 93%
    21:00 +26°C° 0.1 mm 1 mps 745 mmHg 96%
    22:00 +26°C° 0 mm 1 mps 745 mmHg 96%
    23:00 +26°C° 0 mm 1 mps 745 mmHg 96%

    Tomorrow, 25 August, Sunday

    Time Temperature Precipitation Wind Pressure Humidity
    00:00 +23°C° 0 mm 0 mps 745 mmHg 96%
    01:00 +23°C° 0 mm 0 mps 744 mmHg 95%
    02:00 +23°C° 0 mm 0 mps 744 mmHg 95%
    03:00 +23°C° 0 mm 0 mps 744 mmHg 95%
    04:00 +23°C° 0 mm 0 mps 744 mmHg 95%
    05:00 +23°C° 0 mm 0 mps 744 mmHg 95%
    06:00 +25°C° 0 mm 1 mps 744 mmHg 95%
    07:00 +27°C° 0 mm 1 mps 744 mmHg 86%
    08:00 +29°C° 0 mm 1 mps 745 mmHg 77%
    09:00 +32°C° 0 mm 1 mps 745 mmHg 68%
    10:00 +32°C° 0.1 mm 1 mps 745 mmHg 65%
    11:00 +33°C° 0.1 mm 1 mps 744 mmHg 63%
    12:00 +35°C° 0.1 mm 2 mps 744 mmHg 60%
    13:00 +34°C° 0.3 mm 2 mps 743 mmHg 62%
    14:00 +34°C° 0.3 mm 2 mps 743 mmHg 65%
    15:00 +34°C° 0.3 mm 3 mps 742 mmHg 67%
    16:00 +31°C° 0.5 mm 2 mps 742 mmHg 74%
    17:00 +30°C° 0.5 mm 2 mps 742 mmHg 82%
    18:00 +28°C° 0.5 mm 2 mps 743 mmHg 90%
    19:00 +27°C° 0.5 mm 1 mps 743 mmHg 91%
    20:00 +27°C° 0.5 mm 1 mps 744 mmHg 93%
    21:00 +26°C° 0.5 mm 1 mps 744 mmHg 94%
    22:00 +26°C° 0 mm 1 mps 744 mmHg 94%
    23:00 +26°C° 0 mm 1 mps 744 mmHg 94%

    Day after tomorrow, 26 August, Monday

    Time Temperature Precipitation Wind Pressure Humidity
    00:00 +24°C° 0 mm 0 mps 744 mmHg 94%
    01:00 +23°C° 0 mm 0 mps 743 mmHg 94%
    02:00 +23°C° 0 mm 0 mps 743 mmHg 94%
    03:00 +23°C° 0 mm 0 mps 743 mmHg 95%
    04:00 +25°C° 0 mm 1 mps 743 mmHg 95%
    05:00 +25°C° 0 mm 1 mps 743 mmHg 94%
    06:00 +25°C° 0 mm 1 mps 743 mmHg 94%
    07:00 +27°C° 0 mm 1 mps 744 mmHg 84%
    08:00 +29°C° 0 mm 1 mps 744 mmHg 75%
    09:00 +31°C° 0 mm 1 mps 744 mmHg 65%
    10:00 +33°C° 0 mm 1 mps 744 mmHg 60%
    11:00 +34°C° 0 mm 1 mps 743 mmHg 55%
    12:00 +35°C° 0 mm 1 mps 743 mmHg 50%
    13:00 +36°C° 0 mm 2 mps 742 mmHg 52%
    14:00 +36°C° 0 mm 2 mps 742 mmHg 54%
    15:00 +35°C° 0 mm 3 mps 741 mmHg 57%
    16:00 +32°C° 0.2 mm 2 mps 741 mmHg 66%
    17:00 +30°C° 0.2 mm 2 mps 742 mmHg 75%
    18:00 +28°C° 0.2 mm 2 mps 742 mmHg 84%
    19:00 +28°C° 0.1 mm 1 mps 743 mmHg 87%
    20:00 +27°C° 0.1 mm 1 mps 743 mmHg 89%
    21:00 +26°C° 0.1 mm 1 mps 744 mmHg 92%
    22:00 +26°C° 0.4 mm 1 mps 744 mmHg 92%
    23:00 +26°C° 0.4 mm 1 mps 744 mmHg 93%

    27 August, Tuesday

    Time Temperature Precipitation Wind Pressure Humidity
    00:00 +26°C° 0.4 mm 1 mps 743 mmHg 94%
    01:00 +25°C° 0.2 mm 1 mps 743 mmHg 94%
    02:00 +25°C° 0.2 mm 1 mps 743 mmHg 94%
    03:00 +25°C° 0.2 mm 1 mps 743 mmHg 94%
    04:00 +25°C° 0 mm 1 mps 743 mmHg 94%
    05:00 +25°C° 0 mm 1 mps 743 mmHg 94%
    06:00 +25°C° 0 mm 1 mps 743 mmHg 93%
    07:00 +27°C° 0 mm 1 mps 744 mmHg 83%
    08:00 +29°C° 0 mm 1 mps 744 mmHg 73%
    09:00 +32°C° 0 mm 1 mps 744 mmHg 63%
    10:00 +33°C° 0 mm 1 mps 744 mmHg 59%
    11:00 +34°C° 0 mm 1 mps 743 mmHg 55%
    12:00 +36°C° 0 mm 2 mps 743 mmHg 50%
    13:00 +35°C° 0.5 mm 2 mps 743 mmHg 56%
    14:00 +35°C° 0.5 mm 3 mps 742 mmHg 61%
    15:00 +34°C° 0.5 mm 3 mps 742 mmHg 66%
    16:00 +31°C° 0.9 mm 3 mps 742 mmHg 73%
    17:00 +30°C° 0.9 mm 2 mps 742 mmHg 79%
    18:00 +28°C° 0.9 mm 2 mps 743 mmHg 86%
    19:00 +27°C° 0.8 mm 2 mps 743 mmHg 89%
    20:00 +27°C° 0.8 mm 1 mps 744 mmHg 91%
    21:00 +26°C° 0.8 mm 1 mps 744 mmHg 94%
    22:00 +26°C° 0.1 mm 1 mps 744 mmHg 94%
    23:00 +26°C° 0.1 mm 1 mps 744 mmHg 94%

    28 August, Wednesday

    Time Temperature Precipitation Wind Pressure Humidity
    00:00 +26°C° 0.1 mm 1 mps 744 mmHg 94%
    01:00 +25°C° 0 mm 1 mps 744 mmHg 94%
    02:00 +25°C° 0 mm 1 mps 744 mmHg 94%
    03:00 +25°C° 0 mm 1 mps 744 mmHg 94%
    04:00 +24°C° 0 mm 1 mps 744 mmHg 94%
    05:00 +24°C° 0 mm 1 mps 744 mmHg 94%
    06:00 +24°C° 0 mm 1 mps 744 mmHg 94%
    07:00 +26°C° 0 mm 1 mps 745 mmHg 84%
    08:00 +29°C° 0 mm 1 mps 745 mmHg 75%
    09:00 +31°C° 0 mm 1 mps 745 mmHg 65%
    10:00 +32°C° 0.1 mm 1 mps 745 mmHg 62%
    11:00 +33°C° 0.1 mm 1 mps 745 mmHg 59%
    12:00 +35°C° 0.1 mm 2 mps 744 mmHg 55%
    13:00 +34°C° 0.8 mm 2 mps 744 mmHg 62%
    14:00 +32°C° 0.8 mm 2 mps 743 mmHg 69%
    15:00 +31°C° 0.8 mm 3 mps 743 mmHg 75%
    16:00 +30°C° 2.3 mm 2 mps 743 mmHg 80%
    17:00 +28°C° 2.3 mm 2 mps 744 mmHg 85%
    18:00 +27°C° 2.3 mm 1 mps 744 mmHg 90%
    19:00 +26°C° 0.5 mm 1 mps 744 mmHg 91%
    20:00 +26°C° 0.5 mm 1 mps 745 mmHg 92%
    21:00 +25°C° 0.5 mm 1 mps 745 mmHg 93%
    22:00 +25°C° 0.3 mm 1 mps 745 mmHg 94%
    23:00 +25°C° 0.3 mm 1 mps 745 mmHg 94%

    29 August, Thursday

    Time Temperature Precipitation Wind Pressure Humidity
    00:00 +25°C° 0.3 mm 1 mps 745 mmHg 95%
    01:00 +24°C° 0.1 mm 1 mps 745 mmHg 95%
    02:00 +24°C° 0.1 mm 1 mps 745 mmHg 94%
    03:00 +24°C° 0.1 mm 1 mps 744 mmHg 94%
    04:00 +24°C° 0 mm 1 mps 744 mmHg 94%
    05:00 +24°C° 0 mm 1 mps 745 mmHg 94%
    06:00 +23°C° 0 mm 1 mps 745 mmHg 94%
    07:00 +26°C° 0 mm 1 mps 745 mmHg 85%
    08:00 +28°C° 0 mm 1 mps 745 mmHg 76%
    09:00 +30°C° 0 mm 1 mps 746 mmHg 66%
    10:00 +31°C° 0 mm 1 mps 745 mmHg 61%
    11:00 +32°C° 0 mm 1 mps 745 mmHg 56%
    12:00 +34°C° 0 mm 2 mps 745 mmHg 50%
    13:00 +34°C° 0 mm 2 mps 744 mmHg 53%
    14:00 +34°C° 0 mm 2 mps 744 mmHg 56%
    15:00 +33°C° 0 mm 3 mps 743 mmHg 58%
    16:00 +31°C° 0 mm 3 mps 743 mmHg 66%
    17:00 +29°C° 0 mm 2 mps 744 mmHg 74%
    18:00 +27°C° 0 mm 2 mps 744 mmHg 83%
    19:00 +26°C° 0.2 mm 2 mps 745 mmHg 87%
    20:00 +26°C° 0.2 mm 1 mps 745 mmHg 91%
    21:00 +25°C° 0.2 mm 1 mps 746 mmHg 95%
    22:00 +25°C° 0.7 mm 1 mps 746 mmHg 95%
    23:00 +25°C° 0.7 mm 1 mps 746 mmHg 95%
    Show more